Estherville, IA

4:59 PM CDT on May 26, 2017 (GMT -0500)
Estherville Municipal

Weather History for KEST - February, 2012

Change the Weather History Date:

Friday, February 24, 2012

  Actual Average Record
Temperature  
Mean Temperature 24 °F 24 °F  
Max Temperature 29 °F 32 °F 55 °F (1998)
Min Temperature 19 °F 15 °F -12 °F (1993)
Degree Days  
Heating Degree Days 41 41  
Month to date heating degree days 926 1085  
Since 1 July heating degree days 4900 5756  
Cooling Degree Days 0 0  
Month to date cooling degree days 0 0  
Year to date cooling degree days 0 0  
Moisture  
Dew Point 19 °F    
Average Humidity 80    
Maximum Humidity 92    
Minimum Humidity 68    
Precipitation  
Precipitation T in 0.01 in 0.54 in (2007)
Month to date precipitation 0.53 0.30  
Year to date precipitation 0.73  
Sea Level Pressure  
Sea Level Pressure 29.94 in    
Wind  
Wind Speed 18 mph (NW)    
Max Wind Speed 26 mph    
Max Gust Speed 32 mph    
Visibility 6 miles    
Events Fog , Snow    
T = Trace of Precipitation, MM = Missing Value Source: NWS Daily Summary

Daily Weather History Graph

Daily Weather History Graph

Search for Another Location

Airport or City:

Trip Planner

Search our weather history database for the weather conditions in past years. The results will help you decide how hot, cold, wet, or windy it might be!

Date:

Astronomy

Feb. 24, 2012 Rise Set
Actual Time 7:04 AM CST 6:00 PM CST
Civil Twilight 6:35 AM CST 6:29 PM CST
Nautical Twilight 6:02 AM CST 7:03 PM CST
Astronomical Twilight 5:29 AM CST 7:36 PM CST
Moon 7:52 AM CST (2/24) 9:13 PM CST (2/24)
Length of Visible Light 11h 54m
Length of Day
10h 56m
Waxing Crescent, 8% of the Moon is Illuminated
Feb 24
Waxing Crescent
Feb 29
First Quarter
Mar 8
Full
Mar 14
Last Quarter
Mar 22
New

Hourly Weather History & Observations

Time (CST) Temp. Windchill Dew Point Humidity Pressure Visibility Wind Dir Wind Speed Gust Speed Precip Events Conditions
12:07 AM 28.4 °F 17.5 °F 26.6 °F 93% 29.71 in 2.5 mi NW 13.8 mph - 0.00 in Snow Light Snow
12:15 AM 28.4 °F 18.0 °F 26.6 °F 93% 29.71 in 3.0 mi NW 12.7 mph - 0.00 in   Overcast
12:34 AM 28.4 °F 18.0 °F 26.6 °F 93% 29.71 in 2.5 mi NNW 12.7 mph - 0.00 in Snow Light Snow
12:52 AM 28.0 °F 17.0 °F 26.1 °F 92% 29.76 in 2.5 mi NW 13.8 mph - 0.00 in Snow Light Snow
1:00 AM 28.4 °F 16.2 °F 26.6 °F 93% 29.72 in 3.0 mi NW 17.3 mph - 0.00 in   Overcast
1:34 AM 28.4 °F 15.4 °F 26.6 °F 93% 29.73 in 6.0 mi NW 19.6 mph - 0.00 in   Overcast
1:45 AM 28.4 °F 15.1 °F 26.6 °F 93% 29.73 in 2.5 mi NNW 20.7 mph 26.5 mph 0.00 in Snow Light Snow
1:52 AM 28.9 °F 16.1 °F 26.1 °F 89% 29.77 in 2.0 mi NNW 19.6 mph - 0.00 in Snow Light Snow
2:00 AM 28.4 °F 15.4 °F 26.6 °F 93% 29.74 in 3.0 mi NNW 19.6 mph - 0.00 in   Overcast
2:10 AM 28.4 °F 15.1 °F 26.6 °F 93% 29.74 in 4.0 mi NNW 20.7 mph 29.9 mph 0.00 in Snow Light Snow
2:36 AM 28.4 °F 17.5 °F 24.8 °F 86% 29.74 in 10.0 mi NNW 13.8 mph - 0.00 in   Mostly Cloudy
2:52 AM 28.0 °F 16.5 °F 25.0 °F 88% 29.79 in 10.0 mi NW 15.0 mph - 0.00 in   Overcast
3:52 AM 27.0 °F 13.5 °F 21.9 °F 81% 29.80 in 10.0 mi NNW 19.6 mph - N/A   Overcast
4:24 AM 24.8 °F 11.5 °F 19.4 °F 80% 29.78 in 10.0 mi NW 17.3 mph - N/A   Scattered Clouds
4:52 AM 24.1 °F 11.0 °F 19.0 °F 81% 29.84 in 10.0 mi WNW 16.1 mph - N/A   Mostly Cloudy
5:15 AM 23.0 °F 10.6 °F 17.6 °F 80% 29.79 in 10.0 mi NW 13.8 mph - N/A   Mostly Cloudy
5:52 AM 24.1 °F 11.0 °F 18.0 °F 77% 29.86 in 10.0 mi NW 16.1 mph - N/A   Overcast
6:52 AM 23.0 °F 8.7 °F 17.1 °F 78% 29.88 in 10.0 mi NW 18.4 mph - N/A   Mostly Cloudy
8:52 AM 24.1 °F 9.0 °F 16.0 °F 71% 29.94 in 10.0 mi NW 21.9 mph - N/A   Clear
9:52 AM 24.1 °F 11.0 °F 17.1 °F 75% 29.96 in 10.0 mi NNW 16.1 mph - N/A   Partly Cloudy
10:52 AM 24.1 °F 9.4 °F 15.1 °F 69% 29.98 in 10.0 mi NW 20.7 mph - N/A   Clear
11:52 AM 24.1 °F 9.0 °F 15.1 °F 69% 30.00 in 10.0 mi WNW 21.9 mph - N/A   Clear
12:33 PM 24.8 °F 10.7 °F 15.8 °F 69% 29.95 in 10.0 mi WNW 19.6 mph - N/A   Mostly Cloudy
12:52 PM 25.0 °F 11.7 °F 17.1 °F 72% 30.01 in 10.0 mi WNW 17.3 mph - N/A   Mostly Cloudy
1:15 PM 24.8 °F 10.3 °F 15.8 °F 69% 29.95 in 10.0 mi WNW 20.7 mph - N/A   Mostly Cloudy
1:52 PM 26.1 °F 12.7 °F 17.1 °F 69% 29.99 in 10.0 mi WNW 18.4 mph - N/A   Partly Cloudy
2:52 PM 26.1 °F 12.7 °F 17.1 °F 69% 30.01 in 10.0 mi WNW 18.4 mph - N/A   Mostly Cloudy
3:52 PM 27.0 °F 12.2 °F 18.0 °F 69% 30.03 in 10.0 mi WNW 24.2 mph - N/A   Overcast
4:52 PM 25.0 °F 11.7 °F 19.0 °F 78% 30.04 in 10.0 mi West 17.3 mph - 0.00 in   Partly Cloudy
5:52 PM 25.0 °F 12.6 °F 21.0 °F 85% 30.05 in 5.0 mi West 15.0 mph - N/A   Overcast
5:54 PM 24.8 °F 11.9 °F 21.2 °F 86% 30.00 in 2.5 mi WNW 16.1 mph - 0.00 in Snow Light Snow
5:56 PM 24.8 °F 11.5 °F 21.2 °F 86% 30.00 in 1.0 mi WNW 17.3 mph - 0.00 in Snow Light Snow
6:03 PM 24.8 °F 11.5 °F 21.2 °F 86% 30.00 in 0.2 mi NW 17.3 mph 28.8 mph 0.00 in Fog , Snow Snow
6:16 PM 24.8 °F 12.4 °F 21.2 °F 86% 30.01 in 1.2 mi NNW 15.0 mph - 0.00 in Snow Light Snow
6:20 PM 24.8 °F 11.5 °F 21.2 °F 86% 30.01 in 1.5 mi NNW 17.3 mph - 0.00 in Snow Light Snow
6:26 PM 23.0 °F 7.2 °F 19.4 °F 86% 30.02 in 1.0 mi NNW 23.0 mph 27.6 mph 0.00 in Snow Light Snow
6:33 PM 23.0 °F 8.3 °F 17.6 °F 80% 30.02 in 1.8 mi NW 19.6 mph 27.6 mph 0.00 in Snow Light Snow
6:37 PM 23.0 °F 8.3 °F 17.6 °F 80% 30.02 in 3.0 mi NW 19.6 mph 26.5 mph 0.00 in Snow Light Snow
6:52 PM 21.9 °F 8.7 °F 16.0 °F 78% 30.08 in 10.0 mi NW 15.0 mph - 0.00 in   Overcast
7:52 PM 19.9 °F 6.7 °F 12.9 °F 74% 30.11 in 10.0 mi NNW 13.8 mph - N/A   Clear
8:52 PM 19.9 °F 6.2 °F 14.0 °F 78% 30.13 in 10.0 mi NW 15.0 mph - N/A   Mostly Cloudy
9:52 PM 19.9 °F 5.2 °F 14.0 °F 78% 30.14 in 9.0 mi NNW 17.3 mph - 0.00 in   Overcast
10:25 PM 19.4 °F 3.6 °F 15.8 °F 86% 30.09 in 2.0 mi NNW 19.6 mph 24.2 mph 0.00 in Snow Light Snow
10:49 PM 19.4 °F 3.6 °F 15.8 °F 86% 30.09 in 4.0 mi NNW 19.6 mph - 0.00 in Snow Light Snow
10:52 PM 19.9 °F 4.8 °F 14.0 °F 78% 30.16 in 4.0 mi NNW 18.4 mph - 0.00 in Snow Light Snow
11:02 PM 19.4 °F 4.1 °F 14.0 °F 80% 30.10 in 2.0 mi NNW 18.4 mph 32.2 mph 0.00 in Snow Light Snow
11:14 PM 19.4 °F 3.6 °F 14.0 °F 80% 30.10 in 3.0 mi NW 19.6 mph - 0.00 in Snow Light Snow
11:52 PM 19.0 °F 2.0 °F 12.0 °F 74% 30.18 in 5.0 mi NW 23.0 mph - 0.00 in   Haze